Погода в Туринске

Погода в Туринске : погода сейчас, прогноз погоды и архив. Всё, что Вы хотите узнать о погоде в Туринске!

Хотите узнать прогноз погоды в Туринске? Тогда Вам сюда: Погода в Туринске

Поиск расширенной информации на нашем сайте:

Другие новости

Новости СМИ2

Главная страница сайта

Новости сайта

03.07.2017

Напоминаем, что на нашем специализированном сайте Метеоцентр.Азия вы можете получить высокодетализированные автоматические прогнозы погоды по пунктам России, СНГ и мира в авиационном формате (включающие направление и скорость ветра, видимость, явления погоды, количество и форму облачности, нижнюю и верхнюю границу облачности).

Рекомендуем: офисные блоки на выгодных условиях аренда офиса в бизнес парке Московский шелк У метро Спортивная

Погода в Туринске - сегодня

Время (UTC), дата Ветер
(°,м/с) 
Видим.   Явления Облачность Т
(°С)
Тd
(°С)
f(%) Тe
(°С)
Pmin
(гПа)
dP
(гПа)
Po
(мм)
O2
(г/м3)
Тmin Tmax R s Состояние
почвы
18 15.10.17 тихо ()   1000 м    ясно 
-0.1 -1.7 89 -0  1014.9  0.5  752  303           
00 16.10.17 140 (ЮВ) 1000 м  дымка  ясно 
-1.8 -2.8 93 -1  1016  0.6  752  305           
06 16.10.17 150 (ЮВ) 20000 м    10/0 верхняя 
[Ci fib]
+4 -0.8 71 +5  1017.8  0.7  754  299           
12 16.10.17 130 (ЮВ) 20000 м    10/0 средняя, верхняя 
[Ac trans|Ci fib]
+7.7 -2.4 49 +9  1018.3  0.4  754  296           
18 16.10.17 140 (ЮВ) 1000 м    ясно 
+1.9 -3.8 66 +3  1019.8  0.3  755  303           
00 17.10.17 140 (ЮВ) 1000 м    ясно 
-0.6 -3.7 80 -1  1018.2  -1  754  305           
06 17.10.17 150 (ЮВ) 20000 м    10/0 верхняя 
[Ci fib]
+3.9 -0.1 75 +3  1015.6  -1.1  752  299           
12 17.10.17 150 (ЮВ) 20000 м    6/0 верхняя 
[Ci fib]
+8.1 +0.8 60 +8  1011  -2  749  293           
18 17.10.17 160 (Ю) 1000 м    ясно 
+4.8 +1.1 77 +4  1007.7  -2  746  295           
00 18.10.17 150 (ЮВ) 1000 м    10/10 600 м 
[Sc]
+2.8 +0.2 83 +2  1004.1  -1.5  744  296           
06 18.10.17 180 (Ю) 4000 м  в посл. час ливневой дождь  10/10 300 м кучево-дожд. 
[Cb calv]
+4.1 +3.4 95 +5  1002.8  -0.6  743  294           
00 19.10.17 тихо ()   1000 м  дымка  ясно 
-1.6 -1.9 98 -2  1001.9  -0.9  742  301           
06 19.10.17 150 (ЮВ) 4000 м  дымка  10/0 верхняя 
[Ci fib]
+2.7 +2.3 97 +3  1000.3  -1.3  741  295           
12 19.10.17 190 (Ю) 20000 м    10/10 600 м кучево-дожд. 
[Cb calv]
+5.4 +2 79 +5  996.9  -1.4  738  291           
00 20.10.17 260 (З) 1000 м    6/0 средняя 
[Ac trans]
+2.4 +0.2 85 +2  992.4  -0.7  735  293           
06 20.10.17 270 (З) 20000 м    10/10 600 м кучево-дожд. 
[Cb calv]
+4.2 +0.5 77 +3  992.6  0.2  735  292           
00 21.10.17 310 (СЗ) 1000 м    10/0 средняя, верхняя 
[Ac trans|Ci fib]
-0.6 -5.2 71 -2  1001.2  1.4  741  300           
12 21.10.17 300 (СЗ) 20000 м    10/0 средняя 
[Ac trans]
+0.2 -7.6 56 -1  1006.4  0.9  745  301           
18 21.10.17 290 (З) 1000 м    ясно 
-2.7 -6.7 74 -4  1007.3  0.3  746  304           
00 22.10.17 270 (З) 1000 м    ясно 
-4.7 -7.6 80 -4  1008.6  0.7  747  307           
06 22.10.17 280 (З) 20000 м    9/0 средняя 
[Ac trans]
+0.1 -6.7 60 -1  1009.4  0.6  747  302           
12 22.10.17 260 (З) 20000 м    10/4 600 м средняя 
[Sc|Ac trans]
+0.2 -7.4 57 +1  1011.2  0.9  749  302           
18 22.10.17 260 (З) 1000 м    10/10 600 м 
[Sc]
-2.8 -6.9 73 -2  1013.4  0.7  750  306           
06 23.10.17 270 (З) 20000 м    8/8 600 м 
[Sc]
-1.1 -5.9 70 -1  1016  0.4  752  305           
12 23.10.17 тихо ()   20000 м    8/8 600 м кучево-дожд. 
[Cb calv]
-0.4 -7.9 57 -0  1015.9  0.1  752  304           
Время (UTC), дата Ветер
(°,м/с) 
Видим.   Явления Облачность Т
(°С)
Тd
(°С)
f(%) Тe
(°С)
Pmin
(гПа)
dP
(гПа)
Po
(мм)
O2
(г/м3)
Тmin Tmax R s Состояние
почвы

Для получения пояснительной информации подведите курсор к названию столбца.

ПОГОДА в Туринске - архив

Всё, что Вы хотите узнать о погоде в Туринске - удобно и подробно!

Выберите нужную дату (начиная с 1 января 2015* года) и нажмите кнопку "Найти".
Будут отображены архивные сводки погоды по пункту Туринск, начиная с указанной даты.


Отображать данные в формате CSV (для использования в таблицах Excel)


Внимание! Наш архив погоды предназначен исключительно для личного некоммерческого использования в познавательных целях. Если Вам необходимы официальные справки о состоянии погоды (для производственных, юридических, коммерческих и т.п. целей), обращайтесь в органы Росгидромета.

*Примечание: данная дата относится к архиву по метеостанциям СССР (Россия, СНГ, Балтия).
Архив по метеостанциям Зарубежной Европы и Азии (кроме Китая) хранится 10 дней, по другим регионам земного шара (Китай, Африка, Америка, Австралия, Океания) - 1 день.

Туринск - район местоположения метеостанции


Название, широта, долгота, высота метеостанции:
Туринск 58.1°ш. 63.7°д. 103 м над ур. моря [Российская Федерация]

Дополнительная информация

В oтличие oт бoльшинства пoгoдных сайтoв мы публикуем пoдрoбную метеoинфoрмацию в детальнoм прoфессиoнальнoм фoрмате.

Характеристики температуры и влажнoсти вoздуха измеряются на высoте 2 м в тени вдали oт зданий и деревьев.
Скoрoсть ветра измеряется на высoте 10 м (на урoвне рoста челoвека скoрoсть ветра ниже в 1.5-2 раза). Если метеoстанция нахoдится в гoрoде или в лесу, тo скoрoсть ветра занижена на 2-4 м/с пo сравнению с oткрытым местoм. Скoрoсть ветра над акватoриями крупных рек и oзёр, а также на вершинах хoлмoв на 2-5 м/с выше, чем в oбычных услoвиях.
Атмoсфернoе давление в разных тoчках местнoсти мoжет значительнo oтличаться oт давления на метеoстанции, в зависимoсти oт услoвий рельефа (при пoдъёме на 10 м давление пoнижается примернo на 1 мм рт.ст.).